Retour au catalogue

STARLINK-11209

ActifCommunicationsVLEO
NORAD 61200·PAYLOAD·🇺🇸 United States

Lancé Sep 20, 2024 depuis Vandenberg Space Force Base

Loading…

Prochains Passages (prochaines 24 heures)

TLE

FraisSource: CelesTrak SupGP

Époque: Sep 14, 2026, 21:30 UTC

1 61200C 24171A   26257.89631944 -.00036260  00000+0 -29862-3 0  2575
2 61200  53.1566 323.7367 0001224  75.1167 269.8215 15.69732499    13

Suivez STARLINK-11209 en temps réel avec AllMySat

Download on the App Store